[[[{"header":{"parameterUnit":"kt","parameterCategory":2,"dx":1,"dy":1,"la1":30.253999710083008,"la2":30.299108505249023,"lo1":-89.0895004272461,"lo2":-89.04439544677734,"nx":28,"ny":28,"refTime":"2022-09-18T21:00:00:Z","depth":"0","parameterNumber":2,"parameterNumberName":"U-component_of_CURRENTS"},"data":[-0.652,-0.6595,-0.6606,-0.6306,-0.6223,-0.5717,-0.5407,-0.4927,-0.4425,-0.3242,-0.2281,-0.1952,-0.1661,-0.1677,-0.1522,-0.16,-0.17,-0.177,-0.2178,-0.2251,-0.2388,-0.2518,-0.2286,-0.1235,-0.1235,-0.1282,-0.1282,-0.1282,-0.6573,-0.6649,-0.6852,-0.6926,-0.6843,-0.7033,-0.6958,-0.6517,-0.5994,-0.565,-0.5246,-0.4095,-0.3589,-0.3292,-0.2883,-0.2861,-0.2957,-0.2898,-0.2844,-0.2881,-0.3393,-0.3156,-0.2272,-0.2273,-0.2273,-0.2274,-0.2274,-0.2274,-0.666,-0.6778,-0.6986,-0.7146,-0.7349,-0.7347,-0.7169,-0.7263,-0.7146,-0.6648,-0.6961,-0.6152,-0.5673,-0.5152,-0.5153,-0.4532,-0.5141,-0.4273,-0.4463,-0.4701,-0.4447,-0.5084,-0.4729,-0.4737,-0.4744,-0.475,-0.4755,0,-0.6643,-0.676,-0.698,-0.7217,-0.7401,-0.7583,-0.7745,-0.7767,-0.785,-0.7829,-0.7611,-0.7403,-0.7105,-0.6455,-0.6233,-0.6064,-0.5951,-0.6009,-0.574,-0.4748,-0.4774,-0.4631,-0.5494,-0.5288,-0.53,-0.5308,-0.5315,-0.5319,-0.6548,-0.67,-0.7052,-0.7188,-0.733,-0.7562,-0.7694,-0.7868,-0.793,-0.7976,-0.7974,-0.788,-0.7623,-0.7393,-0.7084,-0.6843,-0.68,-0.6278,-0.6128,-0.5738,-0.5789,-0.5952,-0.5869,-0.5444,-0.5428,-0.5415,-0.5405,0,-0.6504,-0.6667,-0.6934,-0.7223,-0.7312,-0.7477,-0.7699,-0.7812,-0.7913,-0.798,-0.8008,-0.7976,-0.7818,-0.77,-0.7578,-0.7417,-0.7055,-0.7178,-0.6533,-0.6388,-0.582,-0.591,-0.5909,-0.5792,-0.694,-0.6935,-0.6931,0,-0.6476,-0.664,-0.6893,-0.703,-0.727,-0.7375,-0.7578,-0.7676,-0.7785,-0.7847,-0.7862,-0.7858,-0.7765,-0.7687,-0.7559,-0.7334,-0.7479,-0.7138,-0.7068,-0.6533,-0.6464,-0.6095,-0.6146,-0.7374,-0.7374,-0.7374,-0.7373,0,-0.6369,-0.6642,-0.6848,-0.6929,-0.718,-0.7276,-0.737,-0.7478,-0.7558,-0.7663,-0.7711,-0.7728,-0.7693,-0.7651,-0.7445,-0.7411,-0.7394,-0.7326,-0.7071,-0.7052,-0.6484,-0.6408,-0.6144,-0.7373,-0.7373,-0.7373,-0.7373,0,-0.6339,-0.6521,-0.6758,-0.6995,-0.705,-0.7144,-0.7301,-0.7375,-0.7456,-0.7473,-0.7501,-0.7444,-0.7475,-0.7341,-0.7316,-0.7274,-0.7195,-0.713,-0.7128,-0.6871,-0.6705,-0.6158,-0.6172,-0.5817,-0.7016,-0.7014,-0.7012,0,-0.6237,-0.6495,-0.6556,-0.6758,-0.6896,-0.6924,-0.7007,-0.7083,-0.7093,-0.7166,-0.7128,-0.7169,-0.7036,-0.7049,-0.7063,-0.6987,-0.7028,-0.6966,-0.6892,-0.6891,-0.668,-0.6833,-0.6212,-0.6172,-0.6985,-0.6988,-0.699,0,-0.6136,-0.6368,-0.6383,-0.6507,-0.6614,-0.6685,-0.6757,-0.6853,-0.6929,-0.6906,-0.6993,-0.6962,-0.6928,-0.6905,-0.6831,-0.686,-0.6969,-0.6754,-0.6751,-0.6758,-0.7039,-0.6818,-0.6815,-0.6931,-0.6935,-0.6939,-0.6968,0,-0.6146,-0.6261,-0.6311,-0.6459,-0.6507,-0.6594,-0.6629,-0.6665,-0.6636,-0.6646,-0.6696,-0.6624,-0.6621,-0.6605,-0.653,-0.6649,-0.658,-0.652,-0.6431,-0.6579,-0.6563,-0.6582,-0.6313,-0.6309,-0.6306,-0.6304,0,0,-0.6016,-0.616,-0.6187,-0.6298,-0.635,-0.6335,-0.6437,-0.6437,-0.6441,-0.6467,-0.6393,-0.6376,-0.6307,-0.637,-0.6412,-0.636,-0.6346,-0.6326,-0.6494,-0.6516,-0.6536,-0.6531,-0.6551,-0.6298,-0.6297,-0.6296,-0.6295,0,-0.6022,-0.6076,-0.6164,-0.6221,-0.63,-0.6307,-0.6329,-0.6352,-0.6345,-0.6363,-0.6291,-0.6294,-0.6214,-0.6215,-0.6192,-0.6309,-0.6218,-0.6283,-0.6422,-0.6465,-0.6491,-0.6513,-0.6514,-0.6535,-0.6287,-0.6288,-0.6288,0,-0.5973,-0.6042,-0.6073,-0.618,-0.6195,-0.6266,-0.6197,-0.6243,-0.6284,-0.6148,-0.6153,-0.6105,-0.6034,-0.6059,-0.6055,-0.6003,-0.6103,-0.6039,-0.6055,-0.6081,-0.612,-0.615,-0.6177,-0.5834,-0.5833,-0.5833,0,0,-0.5983,-0.6055,-0.6119,-0.6182,-0.6209,-0.62,-0.6205,-0.6207,-0.6183,-0.6165,-0.6096,-0.6038,-0.6015,-0.5988,-0.5955,-0.5959,-0.5936,-0.5989,-0.6011,-0.6029,-0.6065,-0.6108,-0.6137,-0.5829,-0.5829,-0.5829,0,0,-0.5959,-0.6048,-0.6066,-0.6149,-0.6187,-0.618,-0.6188,-0.6164,-0.6129,-0.6116,-0.6008,-0.5987,-0.5993,-0.5925,-0.589,-0.5932,-0.5839,-0.5843,-0.5983,-0.6008,-0.6029,-0.6084,-0.5786,0,0,0,0,0,-0.599,-0.6049,-0.6066,-0.6084,-0.6145,-0.6191,-0.6189,-0.6155,-0.6102,-0.6126,-0.6058,-0.5979,-0.5908,-0.5873,-0.5853,-0.5909,-0.5782,-0.579,-0.5798,-0.5979,-0.6006,-0.603,0,0,0,0,0,0,-0.5997,-0.6023,-0.6063,-0.6071,-0.6083,-0.6188,-0.6115,-0.6105,-0.61,-0.6092,-0.5997,-0.5977,-0.5912,-0.5876,-0.5859,-0.5915,-0.5791,-0.5785,-0.5792,-0.5799,-0.5988,-0.6011,-0.603,0,0,0,0,0,-0.6003,-0.6024,-0.6149,-0.6066,-0.6076,-0.605,-0.6112,-0.6104,-0.6089,-0.6008,-0.5989,-0.6067,-0.5915,-0.5895,-0.5865,-0.5926,-0.5802,-0.5796,-0.579,-0.5795,-0.58,-0.5999,0,0,0,0,0,0,-0.6007,-0.5986,-0.6148,-0.6146,-0.6053,-0.6042,-0.6047,-0.6104,-0.6001,-0.5988,-0.6073,-0.6067,-0.5917,-0.5901,-0.5886,-0.5938,-0.581,-0.5805,-0.5801,-0.5794,-0.5798,-0.5802,0,0,0,0,0,0,-0.5974,-0.5986,-0.6146,-0.6133,-0.6129,-0.6035,-0.604,-0.5986,-0.5997,-0.6068,-0.6064,-0.6071,-0.5917,-0.5906,-0.5894,-0.5811,-0.5817,-0.5812,-0.5808,-0.5805,-0.5798,-0.5801,0,0,0,0,0,0,-0.5977,-0.5986,-0.6132,-0.6129,-0.6125,-0.6099,-0.5979,-0.6025,-0.6049,-0.607,-0.6045,-0.6043,-0.5921,-0.5909,-0.5899,-0.5823,-0.5814,-0.5817,-0.5813,-0.581,-0.5809,0,0,0,0,0,0,0,-0.5979,-0.5945,-0.6166,-0.6126,-0.6123,-0.6134,-0.6132,-0.6131,-0.6049,-0.6047,-0.6045,-0.6044,-0.5849,-0.5843,-0.5837,-0.5832,0,0,-0.5818,-0.5815,0,0,0,0,0,0,0,0,-0.5938,-0.5944,-0.6166,-0.6167,-0.6167,-0.6133,-0.6132,-0.6131,-0.6049,-0.6047,-0.6046,-0.6045,-0.5848,-0.5843,-0.5838,0,0,0,0,0,0,0,0,0,0,0,0,0,0,0,-0.6166,-0.6167,0,-0.6133,-0.6132,-0.6131,-0.6048,-0.6047,-0.6046,-0.6045,-0.5846,-0.5842,-0.5838,0,0,0,0,0,0,0,0,0,0,0,0,0,0,0,0,0,0,0,0,0,0,0,0,0,0,0,0,0,0,0,0,0,0,0,0,0,0,0,0,0,0,0,0,0,0,0,0,0,0,0,0,0,0,0,0,0,0,0,0,0,0,0,0,0,0,0,0,0]}],[{"header":{"parameterUnit":"kt","parameterCategory":2,"dx":1,"dy":1,"la1":30.253999710083008,"la2":30.299108505249023,"lo1":-89.0895004272461,"lo2":-89.04439544677734,"nx":28,"ny":28,"refTime":"2022-09-18T21:00:00:Z","depth":"0","parameterNumber":3,"parameterNumberName":"V-component_of_CURRENTS"},"data":[-0.3943,-0.3795,-0.3647,-0.3038,-0.28,-0.226,-0.1988,-0.1658,-0.126,-0.0393,0.0356,0.0717,0.1203,0.1849,0.2547,0.2602,0.2864,0.2703,0.2747,0.2414,0.2316,0.2222,0.2391,0.3158,0.3159,0.3694,0.3699,0.3703,-0.3982,-0.3883,-0.3811,-0.3545,-0.3231,-0.3228,-0.2943,-0.2592,-0.2187,-0.1859,-0.1583,-0.071,-0.0113,0.0353,0.112,0.1441,0.1476,0.1583,0.1722,0.1827,0.1064,0.1206,0.1734,0.1734,0.1733,0.1733,0.1732,0.1732,-0.3994,-0.3998,-0.3907,-0.3774,-0.3668,-0.3421,-0.3191,-0.3033,-0.2771,-0.2303,-0.2536,-0.1998,-0.1549,-0.0851,-0.0682,0.0112,-0.0176,0.0472,0.0464,0.0369,0.0669,-0.033,-0.0059,-0.0063,-0.0066,-0.0069,-0.0072,0,-0.3904,-0.3887,-0.3878,-0.3798,-0.3721,-0.3587,-0.3425,-0.3335,-0.3067,-0.2929,-0.2751,-0.2621,-0.2279,-0.1714,-0.1293,-0.1093,-0.0543,-0.0759,-0.036,0.0323,0.0275,0.0506,-0.053,-0.032,-0.0326,-0.033,-0.0333,-0.0335,-0.3736,-0.3776,-0.3723,-0.3689,-0.3642,-0.3564,-0.3458,-0.324,-0.3087,-0.2879,-0.2798,-0.2594,-0.2419,-0.2039,-0.1635,-0.133,-0.1115,-0.0896,-0.0724,-0.037,-0.0289,-0.0338,-0.0172,-0.0395,-0.0387,-0.0381,-0.0376,0,-0.3651,-0.3586,-0.3595,-0.3492,-0.3457,-0.3446,-0.3228,-0.3111,-0.293,-0.278,-0.2711,-0.2451,-0.227,-0.2035,-0.1774,-0.1587,-0.1159,-0.1322,-0.112,-0.1034,-0.044,-0.0408,-0.0173,0.0048,-0.1116,-0.1114,-0.1112,0,-0.3466,-0.3468,-0.336,-0.3381,-0.3367,-0.3206,-0.3122,-0.2999,-0.2781,-0.2671,-0.2445,-0.2346,-0.2048,-0.1915,-0.1766,-0.1551,-0.1575,-0.132,-0.126,-0.1014,-0.099,-0.0527,-0.0466,-0.1314,-0.1314,-0.1314,-0.1314,0,-0.3339,-0.3258,-0.3277,-0.3252,-0.3115,-0.3076,-0.2982,-0.2803,-0.2693,-0.2483,-0.2379,-0.2191,-0.2056,-0.1903,-0.1721,-0.1686,-0.1531,-0.1427,-0.1289,-0.1287,-0.0937,-0.0905,-0.0481,-0.1314,-0.1314,-0.1314,-0.1314,0,-0.3167,-0.3148,-0.3156,-0.3047,-0.3019,-0.2976,-0.2844,-0.2748,-0.2548,-0.2429,-0.2278,-0.2108,-0.197,-0.1879,-0.1687,-0.1714,-0.1612,-0.1499,-0.1494,-0.1327,-0.1249,-0.1001,-0.0978,-0.0559,-0.1453,-0.1454,-0.1455,0,-0.3098,-0.3077,-0.298,-0.2957,-0.2944,-0.2795,-0.2733,-0.2603,-0.2466,-0.2315,-0.2154,-0.1992,-0.1922,-0.1821,-0.1752,-0.1564,-0.1541,-0.1569,-0.1347,-0.1343,-0.1281,-0.1325,-0.1028,-0.1005,-0.1463,-0.1462,-0.1462,0,-0.3035,-0.2919,-0.2918,-0.2892,-0.2759,-0.2681,-0.2626,-0.249,-0.242,-0.2251,-0.2137,-0.1977,-0.185,-0.1761,-0.1629,-0.1556,-0.1558,-0.1479,-0.1469,-0.1512,-0.143,-0.1351,-0.1338,-0.1458,-0.1456,-0.1455,-0.1469,0,-0.2879,-0.2872,-0.2859,-0.2784,-0.2694,-0.2642,-0.2487,-0.2399,-0.2287,-0.2154,-0.2006,-0.1803,-0.1624,-0.1604,-0.1508,-0.1457,-0.1449,-0.1349,-0.128,-0.1334,-0.1338,-0.1334,-0.1331,-0.1327,-0.1324,-0.1321,0,0,-0.284,-0.2833,-0.2724,-0.2677,-0.2604,-0.2429,-0.2394,-0.2285,-0.2039,-0.1968,-0.1914,-0.162,-0.1493,-0.1386,-0.1406,-0.133,-0.1296,-0.1344,-0.1314,-0.1315,-0.1314,-0.132,-0.132,-0.1316,-0.1314,-0.1313,-0.1312,0,-0.278,-0.2761,-0.2763,-0.2666,-0.2493,-0.2376,-0.2357,-0.2137,-0.2053,-0.1911,-0.1767,-0.1643,-0.1453,-0.1346,-0.1277,-0.1292,-0.122,-0.1294,-0.139,-0.1292,-0.1296,-0.1299,-0.1308,-0.1309,-0.1305,-0.1305,-0.1306,0,-0.2721,-0.2638,-0.2647,-0.2511,-0.2387,-0.2311,-0.2162,-0.2044,-0.1985,-0.1768,-0.1643,-0.1511,-0.1354,-0.1271,-0.1223,-0.1189,-0.114,-0.1142,-0.1155,-0.1144,-0.1035,-0.1042,-0.1048,-0.0975,-0.0974,-0.0974,0,0,-0.2668,-0.2674,-0.2495,-0.2484,-0.2424,-0.2217,-0.2119,-0.2017,-0.1847,-0.1779,-0.1618,-0.1477,-0.1368,-0.13,-0.1177,-0.1093,-0.1023,-0.1111,-0.1127,-0.114,-0.1137,-0.1033,-0.1039,-0.0974,-0.0974,-0.0974,0,0,-0.2619,-0.2492,-0.2455,-0.2442,-0.2291,-0.2051,-0.1988,-0.188,-0.1728,-0.1724,-0.1537,-0.1491,-0.1395,-0.129,-0.1296,-0.1198,-0.1123,-0.1117,-0.129,-0.1306,-0.1321,-0.1352,-0.1212,0,0,0,0,0,-0.2491,-0.2517,-0.2487,-0.246,-0.2261,-0.2087,-0.2043,-0.187,-0.1821,-0.1794,-0.1634,-0.1573,-0.1266,-0.1267,-0.1226,-0.1276,-0.0965,-0.0966,-0.0968,-0.1168,-0.1187,-0.1204,0,0,0,0,0,0,-0.248,-0.246,-0.2481,-0.2268,-0.2214,-0.2088,-0.1991,-0.1943,-0.1822,-0.1807,-0.16,-0.1566,-0.1449,-0.128,-0.1245,-0.1297,-0.1224,-0.0965,-0.0967,-0.0968,-0.1174,-0.119,-0.1204,0,0,0,0,0,-0.2469,-0.2451,-0.222,-0.2259,-0.2214,-0.1972,-0.1993,-0.1952,-0.1867,-0.165,-0.1613,-0.1742,-0.1453,-0.1413,-0.1259,-0.1317,-0.1247,-0.1235,-0.0966,-0.0967,-0.0968,-0.1182,0,0,0,0,0,0,-0.246,-0.2395,-0.2202,-0.2173,-0.2269,-0.1973,-0.1941,-0.1961,-0.1716,-0.1675,-0.1786,-0.1778,-0.1454,-0.1423,-0.1394,-0.1334,-0.1267,-0.1254,-0.1246,-0.0967,-0.0968,-0.0969,0,0,0,0,0,0,-0.2399,-0.2376,-0.2188,-0.2212,-0.2184,-0.1976,-0.1948,-0.1818,-0.1718,-0.1869,-0.1852,-0.1786,-0.1507,-0.143,-0.1407,-0.1207,-0.1281,-0.1269,-0.126,-0.1255,-0.0968,-0.0968,0,0,0,0,0,0,-0.2382,-0.2361,-0.2219,-0.2198,-0.2174,-0.1848,-0.1854,-0.1677,-0.1698,-0.1886,-0.1697,-0.1697,-0.1517,-0.1489,-0.1416,-0.1227,-0.1212,-0.1281,-0.1272,-0.1266,-0.1263,0,0,0,0,0,0,0,-0.2368,-0.2603,-0.2359,-0.2187,-0.2166,-0.1905,-0.1899,-0.1892,-0.1698,-0.1698,-0.1697,-0.1697,-0.1352,-0.1338,-0.1324,-0.1244,0,0,-0.1282,-0.1276,0,0,0,0,0,0,0,0,-0.2602,-0.2603,-0.2358,-0.2351,-0.2345,-0.1904,-0.1899,-0.1893,-0.1698,-0.1698,-0.1697,-0.1697,-0.1348,-0.1337,-0.1326,0,0,0,0,0,0,0,0,0,0,0,0,0,0,0,-0.2357,-0.2352,0,-0.1903,-0.1899,-0.1895,-0.1698,-0.1698,-0.1697,-0.1697,-0.1345,-0.1336,-0.1327,0,0,0,0,0,0,0,0,0,0,0,0,0,0,0,0,0,0,0,0,0,0,0,0,0,0,0,0,0,0,0,0,0,0,0,0,0,0,0,0,0,0,0,0,0,0,0,0,0,0,0,0,0,0,0,0,0,0,0,0,0,0,0,0,0,0,0,0,0]}]],[[{"header":{"parameterUnit":"kt","parameterCategory":2,"dx":1,"dy":1,"la1":30.253999710083008,"la2":30.299108505249023,"lo1":-89.0895004272461,"lo2":-89.04439544677734,"nx":28,"ny":28,"refTime":"2022-09-18T21:00:00:Z","depth":"2","parameterNumber":2,"parameterNumberName":"U-component_of_CURRENTS"},"data":[-0.364,-0.3481,-0.3428,-0.3292,-0.3326,-0.3134,-0.2984,-0.2593,-0.2368,-0.1884,-0.1692,-0.1844,-0.1925,-0.1443,-0.1256,-0.0964,-0.1316,-0.089,-0.1846,-0.194,-0.202,-0.2225,-0.202,0,0,0,0,0,-0.3805,-0.3788,-0.3763,-0.3754,-0.3744,-0.3872,-0.3751,-0.3456,-0.3077,-0.293,-0.2665,-0.2286,-0.2033,-0.2052,-0.1624,-0.1549,-0.1571,-0.1535,-0.1547,-0.1636,-0.1717,-0.1528,-0.0837,-0.0835,-0.0833,-0.0831,0,0,-0.4095,-0.407,-0.4091,-0.4061,-0.4123,-0.412,-0.3952,-0.3892,-0.3688,-0.3326,-0.3434,-0.3101,-0.3056,-0.2661,-0.2512,-0.2382,-0.2648,-0.2554,-0.259,-0.2636,-0.2487,-0.2464,-0.2053,-0.2059,-0.2064,-0.2068,-0.2072,0,-0.4259,-0.4329,-0.4313,-0.4348,-0.4342,-0.4331,-0.4298,-0.42,-0.4153,-0.3995,-0.3807,-0.3694,-0.3537,-0.3222,-0.3155,-0.3087,-0.3321,-0.3122,-0.3909,-0.2981,-0.2973,-0.2957,-0.3008,-0.2677,-0.2687,-0.2694,-0.2699,-0.2703,-0.4456,-0.4435,-0.4507,-0.4493,-0.4522,-0.4497,-0.4461,-0.4452,-0.4382,-0.4241,-0.4159,-0.4098,-0.3966,-0.3873,-0.3765,-0.3728,-0.397,-0.3347,-0.3269,-0.4007,-0.3987,-0.4004,-0.4018,-0.2806,-0.2792,-0.2782,-0.2773,0,-0.454,-0.4589,-0.4566,-0.4605,-0.4603,-0.4587,-0.4564,-0.4496,-0.4468,-0.4345,-0.4329,-0.4286,-0.4237,-0.4303,-0.428,-0.4235,-0.4169,-0.4103,-0.3735,-0.3645,-0.4055,-0.4061,-0.3896,-0.3888,-0.3881,-0.3875,-0.387,0,-0.4672,-0.4637,-0.4714,-0.4699,-0.4649,-0.4696,-0.4625,-0.4621,-0.4571,-0.4468,-0.4501,-0.4395,-0.4471,-0.4441,-0.4467,-0.4336,-0.4412,-0.4235,-0.4194,-0.3843,-0.3798,-0.4329,-0.4322,-0.4387,-0.4387,-0.4387,-0.4387,0,-0.4752,-0.4782,-0.4758,-0.4765,-0.4775,-0.4773,-0.4775,-0.475,-0.4692,-0.4642,-0.4571,-0.455,-0.4507,-0.4498,-0.4501,-0.4524,-0.444,-0.4446,-0.4251,-0.4241,-0.3758,-0.3705,-0.4387,-0.4386,-0.4386,-0.4386,-0.4386,0,-0.486,-0.4871,-0.4872,-0.4837,-0.484,-0.4856,-0.4797,-0.479,-0.4744,-0.4707,-0.4661,-0.4624,-0.4596,-0.4609,-0.4559,-0.4576,-0.4556,-0.4533,-0.4531,-0.4212,-0.4179,-0.3791,-0.3743,-0.4541,-0.4542,-0.4542,-0.4543,0,-0.4878,-0.4905,-0.4947,-0.4931,-0.4926,-0.4957,-0.4944,-0.4928,-0.4901,-0.4826,-0.479,-0.4693,-0.4725,-0.4672,-0.4657,-0.458,-0.4577,-0.4599,-0.4413,-0.4408,-0.4204,-0.4253,-0.3819,-0.3782,-0.4552,-0.4551,-0.4551,0,-0.4889,-0.495,-0.4955,-0.4935,-0.4995,-0.4987,-0.5013,-0.4975,-0.492,-0.4923,-0.4824,-0.4768,-0.4724,-0.4634,-0.4577,-0.4545,-0.4597,-0.45,-0.4491,-0.4513,-0.451,-0.4297,-0.4272,-0.4535,-0.4533,-0.4531,-0.4558,0,-0.4916,-0.4927,-0.4952,-0.4976,-0.4992,-0.5009,-0.5015,-0.5017,-0.499,-0.4931,-0.4858,-0.4762,-0.4607,-0.4627,-0.4552,-0.4509,-0.4495,-0.4423,-0.43,-0.439,-0.4399,-0.4395,-0.4383,-0.4379,-0.4375,-0.4372,0,0,-0.4887,-0.4896,-0.4925,-0.4958,-0.4947,-0.4958,-0.4965,-0.4951,-0.488,-0.4828,-0.4841,-0.4619,-0.4526,-0.4404,-0.4458,-0.441,-0.4374,-0.4327,-0.4366,-0.4367,-0.4366,-0.4378,-0.4378,-0.4366,-0.4364,-0.4363,-0.4362,0,-0.4881,-0.4898,-0.4918,-0.4934,-0.495,-0.4915,-0.4947,-0.4907,-0.4883,-0.4824,-0.4717,-0.4663,-0.4481,-0.4385,-0.4304,-0.4368,-0.4238,-0.4361,-0.4408,-0.434,-0.4345,-0.4349,-0.4364,-0.4366,-0.4353,-0.4354,-0.4354,0,-0.4862,-0.486,-0.4861,-0.4874,-0.4851,-0.4858,-0.4811,-0.4828,-0.481,-0.4642,-0.4573,-0.4493,-0.4327,-0.4262,-0.4225,-0.4162,-0.4107,-0.4106,-0.4123,-0.4059,-0.3978,-0.3986,-0.3994,-0.3888,-0.3887,-0.3887,0,0,-0.4858,-0.4871,-0.4857,-0.4866,-0.488,-0.4817,-0.4802,-0.4781,-0.4708,-0.4677,-0.4553,-0.4425,-0.4324,-0.4255,-0.4147,-0.4061,-0.3975,-0.4058,-0.4079,-0.4098,-0.4046,-0.397,-0.3979,-0.3884,-0.3884,-0.3884,0,0,-0.484,-0.4826,-0.4809,-0.4825,-0.4821,-0.4738,-0.4739,-0.4706,-0.4627,-0.4617,-0.4441,-0.44,-0.4346,-0.4222,-0.4207,-0.411,-0.4013,-0.401,-0.4193,-0.4217,-0.4238,-0.4207,-0.4052,0,0,0,0,0,-0.4808,-0.4833,-0.4819,-0.4816,-0.4749,-0.4745,-0.4729,-0.4673,-0.464,-0.4666,-0.4546,-0.4433,-0.4198,-0.418,-0.4132,-0.4155,-0.3847,-0.3853,-0.3859,-0.4075,-0.4103,-0.4126,0,0,0,0,0,0,-0.4807,-0.4805,-0.4817,-0.4742,-0.4726,-0.4741,-0.4659,-0.4641,-0.4639,-0.4636,-0.4458,-0.4425,-0.4295,-0.4191,-0.4151,-0.4177,-0.4065,-0.3849,-0.3855,-0.386,-0.4084,-0.4107,-0.4127,0,0,0,0,0,-0.4806,-0.4804,-0.4733,-0.4738,-0.4724,-0.4654,-0.466,-0.4645,-0.4639,-0.4454,-0.4425,-0.4614,-0.4296,-0.4256,-0.4166,-0.42,-0.4091,-0.4077,-0.3853,-0.3857,-0.3861,-0.4095,0,0,0,0,0,0,-0.4804,-0.475,-0.4726,-0.4717,-0.476,-0.4653,-0.4642,-0.4649,-0.4454,-0.4431,-0.4595,-0.4593,-0.4296,-0.4265,-0.4234,-0.422,-0.4112,-0.4098,-0.4089,-0.3856,-0.386,-0.3863,0,0,0,0,0,0,-0.4751,-0.4743,-0.4721,-0.4752,-0.4745,-0.4653,-0.4644,-0.4493,-0.4449,-0.4601,-0.4597,-0.4596,-0.4324,-0.4271,-0.4247,-0.4013,-0.4129,-0.4115,-0.4105,-0.4099,-0.3859,-0.3862,0,0,0,0,0,0,-0.4745,-0.4738,-0.4753,-0.4748,-0.4742,-0.4621,-0.451,-0.4427,-0.4544,-0.4606,-0.4548,-0.455,-0.4329,-0.4304,-0.4256,-0.4034,-0.4019,-0.4128,-0.4119,-0.4112,-0.4108,0,0,0,0,0,0,0,-0.474,-0.4823,-0.4798,-0.4744,-0.4739,-0.4633,-0.4629,-0.4625,-0.4544,-0.4546,-0.4548,-0.4549,-0.4207,-0.4192,-0.4177,-0.405,0,0,-0.413,-0.4123,0,0,0,0,0,0,0,0,-0.4823,-0.4823,-0.4798,-0.4797,-0.4796,-0.4632,-0.4629,-0.4626,-0.4545,-0.4546,-0.4547,-0.4548,-0.4203,-0.4191,-0.4178,0,0,0,0,0,0,0,0,0,0,0,0,0,0,0,-0.4798,-0.4797,0,-0.4632,-0.4629,-0.4626,-0.4545,-0.4546,-0.4547,-0.4548,-0.4199,-0.4189,-0.4179,0,0,0,0,0,0,0,0,0,0,0,0,0,0,0,0,0,0,0,0,0,0,0,0,0,0,0,0,0,0,0,0,0,0,0,0,0,0,0,0,0,0,0,0,0,0,0,0,0,0,0,0,0,0,0,0,0,0,0,0,0,0,0,0,0,0,0,0,0]}],[{"header":{"parameterUnit":"kt","parameterCategory":2,"dx":1,"dy":1,"la1":30.253999710083008,"la2":30.299108505249023,"lo1":-89.0895004272461,"lo2":-89.04439544677734,"nx":28,"ny":28,"refTime":"2022-09-18T21:00:00:Z","depth":"2","parameterNumber":3,"parameterNumberName":"V-component_of_CURRENTS"},"data":[-0.0647,-0.0759,-0.0764,-0.1022,-0.1051,-0.122,-0.1322,-0.1331,-0.1117,-0.0758,-0.0334,0.0262,0.086,0.0985,0.1269,0.1418,0.1588,0.1364,0.1736,0.1854,0.1891,0.2188,0.1995,0,0,0,0,0,-0.0529,-0.055,-0.0598,-0.0694,-0.0849,-0.0759,-0.0957,-0.1043,-0.106,-0.0667,-0.0314,0.0176,0.0699,0.1165,0.1507,0.1773,0.1821,0.1758,0.1847,0.1891,0.1932,0.178,0.1487,0.1486,0.1485,0.1484,0,0,-0.0314,-0.0359,-0.038,-0.0441,-0.0496,-0.0637,-0.0744,-0.0772,-0.0825,-0.0696,-0.0324,0.0145,0.0654,0.1376,0.1689,0.1927,0.2108,0.2251,0.2273,0.2299,0.2159,0.2099,0.1969,0.1971,0.1973,0.1975,0.1976,0,-0.0162,-0.0153,-0.0171,-0.0217,-0.0263,-0.0338,-0.0373,-0.0509,-0.04,-0.0361,-0.0162,0.0136,0.0699,0.1242,0.1774,0.2081,0.24,0.2406,0.2729,0.2506,0.2461,0.2494,0.2513,0.2417,0.2422,0.2425,0.2428,0.243,0.0008,-0.0022,0.0005,-0.002,0.0026,0.0006,-0.0034,0.0035,-0.0033,0.011,0.0063,0.0412,0.0769,0.1369,0.1865,0.241,0.2605,0.2512,0.2586,0.2872,0.2905,0.2908,0.291,0.2482,0.2475,0.247,0.2466,0,0.0092,0.0169,0.0143,0.0221,0.0233,0.0207,0.0237,0.0174,0.0274,0.0271,0.0333,0.0679,0.109,0.1589,0.2125,0.2406,0.2752,0.285,0.2674,0.2673,0.2943,0.2938,0.2912,0.2906,0.2901,0.2896,0.2893,0,0.0286,0.0255,0.0373,0.0367,0.0311,0.0479,0.0429,0.0554,0.0613,0.0624,0.096,0.104,0.1633,0.1908,0.2338,0.2673,0.2728,0.296,0.2988,0.2857,0.2833,0.3174,0.3175,0.3152,0.3151,0.315,0.3149,0,0.0422,0.0502,0.0481,0.052,0.0664,0.068,0.0766,0.0928,0.0942,0.1138,0.1116,0.1514,0.1703,0.2022,0.2528,0.2579,0.2845,0.2952,0.3,0.2993,0.2895,0.2874,0.3148,0.3147,0.3147,0.3147,0.3146,0,0.0638,0.0668,0.0681,0.0752,0.0782,0.0838,0.0919,0.1028,0.1222,0.1319,0.1544,0.177,0.2098,0.227,0.2691,0.2627,0.2854,0.3023,0.3031,0.2883,0.2934,0.2836,0.2806,0.3166,0.3165,0.3164,0.3164,0,0.0733,0.0769,0.0891,0.0915,0.0964,0.1154,0.1234,0.1398,0.1545,0.1627,0.1952,0.2116,0.2433,0.2533,0.2681,0.292,0.3019,0.2975,0.3111,0.3117,0.2881,0.2874,0.2709,0.2808,0.3154,0.3155,0.3156,0,0.0823,0.0991,0.0983,0.1008,0.1219,0.1288,0.1416,0.159,0.1586,0.188,0.1902,0.2352,0.248,0.2627,0.2851,0.2939,0.3017,0.3006,0.301,0.3,0.3077,0.2889,0.2879,0.2996,0.2996,0.2996,0.3148,0,0.104,0.1058,0.1071,0.1188,0.129,0.1354,0.1573,0.1674,0.1782,0.1922,0.2131,0.2437,0.2649,0.2775,0.2941,0.3056,0.307,0.3088,0.3053,0.3087,0.3164,0.3169,0.313,0.3132,0.3133,0.3134,0,0,0.1099,0.1117,0.1247,0.1306,0.1368,0.1559,0.1605,0.1749,0.198,0.2036,0.2093,0.2482,0.2683,0.2891,0.2976,0.3087,0.3097,0.3034,0.3106,0.3102,0.3099,0.317,0.3173,0.3137,0.3137,0.3138,0.3138,0,0.1185,0.1223,0.1215,0.1333,0.1489,0.1618,0.1626,0.1834,0.1905,0.2087,0.2216,0.2402,0.2668,0.2836,0.2951,0.3089,0.3096,0.314,0.3087,0.3117,0.3112,0.3107,0.3174,0.3177,0.3141,0.3141,0.3141,0,0.1284,0.1351,0.1341,0.1491,0.1601,0.1703,0.1782,0.1872,0.194,0.2108,0.223,0.2402,0.2616,0.2807,0.2888,0.2886,0.3083,0.307,0.3068,0.3037,0.3067,0.3063,0.306,0.3083,0.3082,0.3081,0,0,0.1351,0.1341,0.153,0.1523,0.1595,0.1755,0.1822,0.1889,0.2038,0.2086,0.2226,0.2386,0.2564,0.2648,0.2821,0.2995,0.302,0.3052,0.3055,0.3056,0.3026,0.3057,0.3056,0.3076,0.3076,0.3076,0,0,0.1391,0.1514,0.1547,0.1555,0.1702,0.1903,0.1929,0.1989,0.2125,0.21,0.2256,0.2299,0.2462,0.2573,0.2496,0.2793,0.2796,0.2816,0.2686,0.2692,0.2695,0.2607,0.2531,0,0,0,0,0,0.1531,0.1504,0.1532,0.1553,0.1724,0.1896,0.1932,0.2014,0.1985,0.2018,0.2153,0.2176,0.2579,0.2514,0.2562,0.2597,0.3015,0.3026,0.3036,0.2913,0.2917,0.2921,0,0,0,0,0,0,0.1541,0.1561,0.1536,0.172,0.1761,0.1896,0.1908,0.1935,0.1982,0.1981,0.2158,0.2185,0.23,0.2495,0.2537,0.2568,0.2517,0.3019,0.3028,0.3037,0.2914,0.2918,0.2921,0,0,0,0,0,0.1549,0.1566,0.1781,0.1725,0.1761,0.1891,0.1903,0.1925,0.1955,0.2149,0.2174,0.1999,0.23,0.234,0.2521,0.2546,0.2489,0.2504,0.3025,0.3033,0.3039,0.2916,0,0,0,0,0,0,0.1555,0.1626,0.1795,0.1815,0.1672,0.1886,0.1908,0.1916,0.2121,0.2146,0.2001,0.1999,0.2303,0.2333,0.2364,0.2531,0.2465,0.2481,0.2491,0.3031,0.3036,0.3041,0,0,0,0,0,0,0.1618,0.164,0.1805,0.1732,0.1745,0.188,0.1899,0.2073,0.2122,0.1963,0.1967,0.1997,0.2245,0.2329,0.2353,0.2626,0.2448,0.2463,0.2473,0.248,0.3035,0.304,0,0,0,0,0,0,0.1632,0.1652,0.1728,0.1738,0.1749,0.1982,0.204,0.2202,0.2069,0.1953,0.2058,0.2052,0.224,0.2266,0.2346,0.2608,0.2621,0.2448,0.2458,0.2466,0.247,0,0,0,0,0,0,0,0.1643,0.1454,0.167,0.1743,0.1752,0.1997,0.2003,0.2009,0.2068,0.2063,0.2059,0.2054,0.2362,0.2378,0.2395,0.2593,0,0,0.2447,0.2454,0,0,0,0,0,0,0,0,0.1451,0.1453,0.167,0.1674,0.1678,0.1998,0.2003,0.2008,0.2067,0.2064,0.206,0.2056,0.2367,0.238,0.2393,0,0,0,0,0,0,0,0,0,0,0,0,0,0,0,0.1671,0.1674,0,0.1998,0.2002,0.2006,0.2067,0.2064,0.2061,0.2058,0.237,0.2381,0.2392,0,0,0,0,0,0,0,0,0,0,0,0,0,0,0,0,0,0,0,0,0,0,0,0,0,0,0,0,0,0,0,0,0,0,0,0,0,0,0,0,0,0,0,0,0,0,0,0,0,0,0,0,0,0,0,0,0,0,0,0,0,0,0,0,0,0,0,0,0]}]],[[{"header":{"parameterUnit":"kt","parameterCategory":2,"dx":1,"dy":1,"la1":30.253999710083008,"la2":30.299108505249023,"lo1":-89.0895004272461,"lo2":-89.04439544677734,"nx":28,"ny":28,"refTime":"2022-09-18T21:00:00:Z","depth":"4","parameterNumber":2,"parameterNumberName":"U-component_of_CURRENTS"},"data":[-0.1006,-0.0979,-0.0953,-0.0808,-0.076,-0.0797,-0.0934,-0.1164,-0.1196,-0.1501,-0.1466,-0.1697,-0.1649,-0.1813,-0.1663,-0.1677,-0.1778,-0.1832,-0.1828,-0.2093,-0.2119,-0.2142,-0.2148,0,0,0,0,0,-0.107,-0.102,-0.1,-0.0987,-0.0996,-0.104,-0.124,-0.1404,-0.1715,-0.1711,-0.1877,-0.1845,-0.1825,-0.1868,-0.1731,-0.1918,-0.1973,-0.1756,-0.1975,-0.211,-0.2138,-0.2134,0,0,0,0,0,0,-0.1144,-0.1135,-0.1156,-0.1165,-0.1201,-0.1233,-0.1365,-0.1494,-0.165,-0.2021,-0.2002,-0.2116,-0.2238,-0.2127,-0.2073,-0.2,-0.1998,-0.199,-0.2023,-0.2052,-0.2024,-0.1883,-0.1632,0,0,0,0,0,-0.1215,-0.1259,-0.1299,-0.1313,-0.1386,-0.1464,-0.1613,-0.1694,-0.2001,-0.2217,-0.2299,-0.2331,-0.2292,-0.2275,-0.22,-0.2166,-0.2422,-0.2302,-0.2318,-0.2401,-0.2318,-0.2314,-0.2331,-0.2247,-0.2251,-0.2253,-0.2254,0,-0.1302,-0.1313,-0.1444,-0.1459,-0.1541,-0.1661,-0.1749,-0.2019,-0.2133,-0.2421,-0.2455,-0.2546,-0.2625,-0.2439,-0.252,-0.2435,-0.2422,-0.2376,-0.2464,-0.2364,-0.2352,-0.2362,-0.237,-0.2278,-0.2276,-0.2274,-0.2272,0,-0.1344,-0.1438,-0.1505,-0.1671,-0.1716,-0.1784,-0.2001,-0.2109,-0.2337,-0.2484,-0.2543,-0.2736,-0.2733,-0.2781,-0.2797,-0.2734,-0.2671,-0.2586,-0.277,-0.2764,-0.2412,-0.2411,-0.2316,-0.2307,-0.23,-0.2294,-0.2289,0,-0.1465,-0.1513,-0.1647,-0.1682,-0.1771,-0.1921,-0.2058,-0.22,-0.2412,-0.253,-0.271,-0.2774,-0.2897,-0.2912,-0.2901,-0.2775,-0.2911,-0.2687,-0.2663,-0.292,-0.2917,-0.2906,-0.2901,-0.2962,-0.2963,-0.2964,-0.2965,0,-0.1508,-0.1636,-0.1686,-0.1739,-0.1913,-0.1982,-0.2096,-0.2296,-0.2402,-0.2598,-0.2695,-0.2818,-0.2871,-0.2908,-0.29,-0.2927,-0.2909,-0.2955,-0.2714,-0.2695,-0.2909,-0.2902,-0.2966,-0.2966,-0.2966,-0.2966,-0.2967,0,-0.1617,-0.1663,-0.1736,-0.1871,-0.189,-0.1994,-0.2149,-0.2276,-0.2469,-0.2565,-0.2691,-0.278,-0.2854,-0.2857,-0.2908,-0.2916,-0.2895,-0.2892,-0.289,-0.2672,-0.2637,-0.2724,-0.2806,-0.2806,-0.2806,-0.2806,-0.2805,0,-0.1625,-0.1687,-0.1761,-0.1863,-0.1884,-0.2008,-0.2114,-0.2259,-0.2384,-0.2513,-0.2593,-0.272,-0.273,-0.2791,-0.2829,-0.2865,-0.2862,-0.2867,-0.2853,-0.285,-0.2621,-0.265,-0.2921,-0.2802,-0.2802,-0.2802,-0.2803,0,-0.1605,-0.1714,-0.1721,-0.1768,-0.1902,-0.1942,-0.2062,-0.2186,-0.2277,-0.2425,-0.252,-0.2651,-0.2705,-0.2747,-0.2784,-0.2815,-0.2845,-0.2811,-0.2813,-0.2723,-0.2888,-0.2668,-0.2649,-0.2911,-0.2913,-0.2915,-0.28,0,-0.1656,-0.1713,-0.1711,-0.1797,-0.1855,-0.1927,-0.2024,-0.2118,-0.2201,-0.2304,-0.2445,-0.2543,-0.2652,-0.2675,-0.2699,-0.2777,-0.2736,-0.2772,-0.2714,-0.2793,-0.2728,-0.2731,-0.2691,-0.269,-0.2689,-0.2688,0,0,-0.1623,-0.1674,-0.1697,-0.1735,-0.1788,-0.1879,-0.1935,-0.2016,-0.218,-0.2236,-0.2263,-0.2461,-0.2509,-0.261,-0.2656,-0.269,-0.2681,-0.264,-0.2763,-0.2772,-0.2779,-0.2722,-0.2725,-0.2687,-0.2687,-0.2686,-0.2686,0,-0.1618,-0.1652,-0.167,-0.1734,-0.1822,-0.1879,-0.1899,-0.2002,-0.2062,-0.2211,-0.2262,-0.2358,-0.2475,-0.2531,-0.2566,-0.2675,-0.262,-0.2689,-0.2702,-0.2755,-0.2765,-0.2773,-0.2718,-0.2721,-0.2684,-0.2684,-0.2685,0,-0.1613,-0.1647,-0.1676,-0.1751,-0.1793,-0.1855,-0.1871,-0.1948,-0.2033,-0.2083,-0.2207,-0.2277,-0.2343,-0.2451,-0.2495,-0.2467,-0.2558,-0.2548,-0.2554,-0.2535,-0.2587,-0.2598,-0.2609,-0.2466,-0.2465,-0.2464,0,0,-0.1603,-0.1635,-0.171,-0.1754,-0.1763,-0.1846,-0.1887,-0.196,-0.2043,-0.2086,-0.2154,-0.2233,-0.2308,-0.2349,-0.2424,-0.2499,-0.248,-0.2519,-0.2529,-0.2537,-0.2524,-0.2577,-0.2589,-0.246,-0.246,-0.246,0,0,-0.1599,-0.1662,-0.171,-0.1742,-0.1824,-0.1897,-0.1919,-0.1972,-0.2071,-0.2094,-0.2138,-0.2161,-0.227,-0.2288,-0.2241,-0.2381,-0.2342,-0.2353,-0.2356,-0.237,-0.238,-0.2346,-0.2204,0,0,0,0,0,-0.1641,-0.1648,-0.1692,-0.1709,-0.181,-0.188,-0.1899,-0.1969,-0.1975,-0.2012,-0.2107,-0.2078,-0.2295,-0.2255,-0.2267,-0.2286,-0.2414,-0.2422,-0.243,-0.2454,-0.2468,-0.248,0,0,0,0,0,0,-0.1648,-0.1664,-0.1692,-0.1758,-0.1783,-0.1878,-0.1898,-0.1918,-0.1975,-0.1983,-0.2067,-0.2079,-0.2118,-0.2247,-0.2258,-0.2276,-0.22,-0.2417,-0.2424,-0.243,-0.2459,-0.247,-0.248,0,0,0,0,0,-0.1653,-0.1667,-0.1806,-0.176,-0.1781,-0.1879,-0.1898,-0.1915,-0.1965,-0.2033,-0.2049,-0.2018,-0.2116,-0.213,-0.2253,-0.2271,-0.2192,-0.2197,-0.2422,-0.2427,-0.2432,-0.2465,0,0,0,0,0,0,-0.1657,-0.1689,-0.1812,-0.1823,-0.176,-0.1877,-0.1895,-0.1912,-0.2014,-0.203,-0.1984,-0.1989,-0.2115,-0.2126,-0.2137,-0.2269,-0.2186,-0.219,-0.2193,-0.2426,-0.243,-0.2434,0,0,0,0,0,0,-0.1683,-0.1697,-0.1818,-0.1813,-0.1824,-0.1875,-0.1891,-0.1933,-0.2013,-0.1959,-0.1966,-0.1985,-0.2091,-0.2123,-0.2132,-0.2197,-0.2181,-0.2185,-0.2188,-0.219,-0.2429,-0.2433,0,0,0,0,0,0,-0.1691,-0.1703,-0.1811,-0.1819,-0.1829,-0.1952,-0.1914,-0.201,-0.2025,-0.1952,-0.2027,-0.2028,-0.2086,-0.2097,-0.2128,-0.2189,-0.2195,-0.2181,-0.2184,-0.2186,-0.2187,0,0,0,0,0,0,0,-0.1697,-0.1589,-0.175,-0.1824,-0.1833,-0.192,-0.1923,-0.1926,-0.2025,-0.2026,-0.2027,-0.2027,-0.2157,-0.2162,-0.2166,-0.2183,0,0,-0.2181,-0.2183,0,0,0,0,0,0,0,0,-0.1587,-0.1589,-0.175,-0.1752,-0.1754,-0.1921,-0.1923,-0.1925,-0.2025,-0.2026,-0.2026,-0.2027,-0.2158,-0.2162,-0.2166,0,0,0,0,0,0,0,0,0,0,0,0,0,0,0,-0.175,-0.1752,0,-0.1921,-0.1923,-0.1925,-0.2026,-0.2026,-0.2026,-0.2027,-0.2159,-0.2162,-0.2166,0,0,0,0,0,0,0,0,0,0,0,0,0,0,0,0,0,0,0,0,0,0,0,0,0,0,0,0,0,0,0,0,0,0,0,0,0,0,0,0,0,0,0,0,0,0,0,0,0,0,0,0,0,0,0,0,0,0,0,0,0,0,0,0,0,0,0,0,0]}],[{"header":{"parameterUnit":"kt","parameterCategory":2,"dx":1,"dy":1,"la1":30.253999710083008,"la2":30.299108505249023,"lo1":-89.0895004272461,"lo2":-89.04439544677734,"nx":28,"ny":28,"refTime":"2022-09-18T21:00:00:Z","depth":"4","parameterNumber":3,"parameterNumberName":"V-component_of_CURRENTS"},"data":[-0.1177,-0.1287,-0.1318,-0.1446,-0.1524,-0.1649,-0.1705,-0.1646,-0.1496,-0.1322,-0.1026,-0.0797,-0.028,-0.0458,0.0256,0.0349,0.0376,0.0959,0.0965,0.0969,0.0956,0.0944,0.0717,0,0,0,0,0,-0.1138,-0.1211,-0.1321,-0.1449,-0.1563,-0.1636,-0.1704,-0.171,-0.1597,-0.1357,-0.125,-0.0856,-0.0302,-0.007,0.0245,0.0315,0.0649,0.0684,0.0673,0.0961,0.0946,0.073,0,0,0,0,0,0,-0.1092,-0.1167,-0.1278,-0.1397,-0.1533,-0.1624,-0.1669,-0.1594,-0.1551,-0.1287,-0.116,-0.0736,-0.049,-0.0019,0.0315,0.0615,0.0656,0.0692,0.0693,0.0682,0.0476,0.0333,0.0669,0,0,0,0,0,-0.1044,-0.1103,-0.1203,-0.1344,-0.1457,-0.1575,-0.1641,-0.1625,-0.1548,-0.1469,-0.114,-0.0829,-0.0419,-0.0046,0.0323,0.0628,0.0672,0.0841,0.0834,0.0673,0.0589,0.0628,0.0594,0.0892,0.089,0.0889,0.0888,0,-0.0985,-0.1052,-0.1215,-0.1297,-0.137,-0.1477,-0.1545,-0.1548,-0.1529,-0.132,-0.1255,-0.0923,-0.0739,-0.0111,0.0143,0.0603,0.0641,0.0804,0.0631,0.0562,0.0613,0.0579,0.0549,0.0877,0.0878,0.0879,0.088,0,-0.0956,-0.1028,-0.1153,-0.1274,-0.132,-0.1393,-0.1477,-0.1497,-0.143,-0.1348,-0.131,-0.1085,-0.0735,-0.0464,-0.0041,0.0107,0.0433,0.0568,0.0309,0.0371,0.0543,0.0516,0.0858,0.0862,0.0866,0.0869,0.0871,0,-0.0936,-0.1018,-0.1133,-0.1188,-0.1296,-0.1333,-0.1399,-0.1394,-0.1352,-0.1314,-0.1206,-0.1093,-0.0846,-0.0586,-0.0362,0.0014,0.0045,0.0214,0.0301,0.0054,0.0032,0.0118,0.0099,0.0247,0.0244,0.0241,0.0239,0,-0.0897,-0.1013,-0.1108,-0.1143,-0.1234,-0.1283,-0.131,-0.1299,-0.1305,-0.1222,-0.1172,-0.1034,-0.0915,-0.068,-0.0411,-0.0457,-0.0019,-0.0033,0.0192,0.0197,0.0094,0.0081,0.0235,0.0235,0.0234,0.0233,0.0232,0,-0.0883,-0.0949,-0.1056,-0.1156,-0.1174,-0.1219,-0.1242,-0.1261,-0.1213,-0.1194,-0.1128,-0.1051,-0.093,-0.0892,-0.0571,-0.067,-0.0466,-0.0324,-0.0304,-0.0236,-0.0185,-0.0152,-0.0068,-0.0072,-0.0076,-0.008,-0.0083,0,-0.084,-0.0939,-0.0964,-0.1053,-0.1103,-0.11,-0.1131,-0.1142,-0.1121,-0.1101,-0.1037,-0.1,-0.0976,-0.0937,-0.0837,-0.0655,-0.0526,-0.0697,-0.0279,-0.0266,-0.0242,-0.0151,-0.0511,-0.0138,-0.0131,-0.0126,-0.0122,0,-0.0793,-0.0883,-0.0891,-0.0944,-0.0969,-0.0993,-0.1016,-0.1037,-0.1043,-0.1038,-0.1033,-0.0994,-0.0947,-0.0916,-0.086,-0.0764,-0.0597,-0.0687,-0.0678,-0.0539,-0.0247,-0.0219,-0.0183,-0.0531,-0.0527,-0.0524,-0.016,0,-0.079,-0.084,-0.0857,-0.0899,-0.0921,-0.0949,-0.0949,-0.0964,-0.0965,-0.0964,-0.0948,-0.0887,-0.0846,-0.0843,-0.0811,-0.0739,-0.0672,-0.0647,-0.0617,-0.0606,-0.0448,-0.0419,-0.0743,-0.0742,-0.0741,-0.074,0,0,-0.0736,-0.0784,-0.0784,-0.0821,-0.0843,-0.0821,-0.0862,-0.0862,-0.0869,-0.0876,-0.0863,-0.0808,-0.0781,-0.0745,-0.0752,-0.0736,-0.0624,-0.0757,-0.0633,-0.0622,-0.0611,-0.046,-0.0433,-0.0738,-0.0737,-0.0737,-0.0737,0,-0.0721,-0.0734,-0.0771,-0.079,-0.0809,-0.0801,-0.0816,-0.0823,-0.0828,-0.0846,-0.0791,-0.0766,-0.0759,-0.0718,-0.0696,-0.072,-0.0623,-0.0722,-0.0773,-0.0628,-0.0619,-0.061,-0.046,-0.0437,-0.0734,-0.0734,-0.0734,0,-0.0688,-0.0702,-0.0721,-0.0747,-0.0751,-0.0772,-0.0749,-0.0765,-0.0788,-0.073,-0.0754,-0.0714,-0.0668,-0.0665,-0.0665,-0.0658,-0.0598,-0.0678,-0.0683,-0.0687,-0.0535,-0.0525,-0.0517,-0.0619,-0.0619,-0.0618,0,0,-0.0677,-0.0708,-0.0716,-0.0743,-0.0747,-0.0747,-0.0755,-0.0751,-0.0736,-0.0732,-0.0721,-0.0693,-0.0664,-0.0663,-0.0638,-0.0653,-0.0558,-0.0667,-0.0673,-0.0677,-0.0685,-0.0535,-0.0527,-0.0618,-0.0618,-0.0618,0,0,-0.0661,-0.0681,-0.0688,-0.0713,-0.0729,-0.0717,-0.0727,-0.0728,-0.0718,-0.0708,-0.0674,-0.0667,-0.0663,-0.0646,-0.0646,-0.0648,-0.062,-0.062,-0.0676,-0.0682,-0.0687,-0.0701,-0.0619,0,0,0,0,0,-0.066,-0.0682,-0.0689,-0.0694,-0.0707,-0.0722,-0.0723,-0.0709,-0.07,-0.0717,-0.068,-0.0671,-0.0626,-0.0624,-0.0623,-0.0652,-0.0616,-0.0617,-0.0617,-0.069,-0.0697,-0.0702,0,0,0,0,0,0,-0.0662,-0.0668,-0.0688,-0.0679,-0.0682,-0.072,-0.0684,-0.068,-0.0697,-0.0694,-0.0675,-0.0669,-0.0638,-0.0625,-0.0624,-0.0652,-0.0619,-0.0617,-0.0617,-0.0617,-0.0692,-0.0698,-0.0703,0,0,0,0,0,-0.0663,-0.0668,-0.0696,-0.0678,-0.0681,-0.067,-0.0682,-0.0679,-0.0694,-0.066,-0.0655,-0.0686,-0.0639,-0.0636,-0.0624,-0.0653,-0.062,-0.0619,-0.0617,-0.0617,-0.0617,-0.0695,0,0,0,0,0,0,-0.0664,-0.066,-0.0695,-0.0695,-0.0669,-0.0668,-0.0668,-0.0679,-0.0658,-0.0654,-0.0667,-0.0664,-0.064,-0.0637,-0.0635,-0.0655,-0.062,-0.062,-0.062,-0.0617,-0.0617,-0.0617,0,0,0,0,0,0,-0.0658,-0.066,-0.0695,-0.0684,-0.0683,-0.0666,-0.0666,-0.0666,-0.0657,-0.0665,-0.0663,-0.0666,-0.0638,-0.0638,-0.0637,-0.0638,-0.0621,-0.062,-0.062,-0.062,-0.0617,-0.0617,0,0,0,0,0,0,-0.0658,-0.066,-0.0684,-0.0683,-0.0682,-0.0678,-0.0664,-0.0676,-0.066,-0.0666,-0.0657,-0.0656,-0.064,-0.0638,-0.0638,-0.064,-0.0638,-0.0621,-0.062,-0.062,-0.062,0,0,0,0,0,0,0,-0.0659,-0.065,-0.0698,-0.0682,-0.068,-0.0695,-0.0695,-0.0694,-0.066,-0.0659,-0.0658,-0.0657,-0.0622,-0.0622,-0.0622,-0.0641,0,0,-0.0621,-0.062,0,0,0,0,0,0,0,0,-0.0649,-0.065,-0.0698,-0.0698,-0.0699,-0.0695,-0.0695,-0.0694,-0.066,-0.0659,-0.0658,-0.0657,-0.0622,-0.0622,-0.0622,0,0,0,0,0,0,0,0,0,0,0,0,0,0,0,-0.0698,-0.0698,0,-0.0695,-0.0695,-0.0695,-0.0659,-0.0659,-0.0658,-0.0657,-0.0622,-0.0622,-0.0622,0,0,0,0,0,0,0,0,0,0,0,0,0,0,0,0,0,0,0,0,0,0,0,0,0,0,0,0,0,0,0,0,0,0,0,0,0,0,0,0,0,0,0,0,0,0,0,0,0,0,0,0,0,0,0,0,0,0,0,0,0,0,0,0,0,0,0,0,0]}]]]